COSMOS 2024 (ETALON 2)

Last updated on Mon Nov 03 2025 00:03:54 GMT+0000 (Coordinated Universal Time)

1 20026U 89039C 25305.76889045 -.00000001 00000+0 00000+0 0 9991 2 20026 65.0740 318.3662 0020430 214.4301 317.3080 2.13204470283656
UTC large
Height (km)
Speed (km/s)
/
Latitude / Longitude
Inclination (degrees)
Orbital Period (minutes)
Azimuth
Elevation
Range (km)
Doppler Factor

Next 0 passes for location: London (51.5072 / 0.1276)

Sorry there are no passes over London.